星链-11388 (STARLINK-11388)

导读

STARLINK-11388是美国SpaceX星链星座的卫星,于2024年11月25日发射入轨,属于星链低轨互联网星座扩容任务。星链星座计划部署数万颗卫星,旨在为全球用户提供覆盖偏远地区的高速卫星互联网服务,该卫星的入轨进一步扩充了星链星座的全球服务覆盖与容量。

Basic Information
目录编号:
62092
目录名称:
STARLINK-11388
国际标识:
2024-220E
轨道中心:
EARTH
卫星名称:
星链-11388
卫星全名:
星链-11388 (STARLINK-11388)
卫星状态:
在轨 (已飞行655 天)
发射日期:
2024-11-25 UTC
国别 :
美国 (US)
星等 :
--
This satellite is enrolled in the Space Conjunction Data Service (SCDS) and the current flight risk assessment level is: No High Risk
Orbit Information
数据来源 国际轨道数据
星历时间: 2026-09-10T22:21:21+0800
19小时前
查看轨道信息
半长轴: 6734.453km
偏心率: 0.000281
轨道倾角: 43.000°
近地点辐角 261.732°
升交点赤经 8.580°
平近点角 98.323°
近地点: 354.423km
远地点: 358.209km
周期: 91.667分钟
每日圈数: 15.709027
Detailed Information
固有亮度:
5
最大亮度:
2.5
卫星平台:
Starlink V1.0
覆盖范围:
全球
运营商:
太空探索技术公司
运营商所在国:
美国
制造商(研发单位):
太空探索技术公司
制造商所在国:
美国
使用方式:
暂无
Satellite Introduction
Starlink 计划是 SpaceX 推出的全球卫星互联网项目,通过发射低轨道卫星,为全球尤其是偏远地区提供高速、低延迟的互联网服务。自 2019 年起,Starlink 已部署数千颗卫星,旨在缩小全球数字鸿沟,推动互联网普及。该项目还为军事、航空等行业提供通信支持,带来广泛经济效益。
2D Orbit Map
3D Orbit Map
Orbit Altitude Analysis Chart
Orbit Inclination Analysis Chart
Orbit Comprehensive Analysis Chart
View Comprehensive Chart
Conjunction Data List
Event ID Objects TCA Miss Dist (km) Collision Risk Probability Collision Risk Index (CRI) Action
CDM_260913-164806-209206-406921
2026-09-13T
16:48:48+0000
2.111 km
极远距离
1.280255E-6 低风险 0.37
CDM_260913-160306-209206-406921
2026-09-13T
16:03:02+0000
2.156 km
极远距离
1.223663E-6 低风险 0.37
Miss Distance Evolution Trend with All Objects
Collision Probability Evolution Trend with All Objects